Location: Altmatt
(47.1333°N, 8.7000°E)
Time: 02:57:35
(UTC+00:00)

USA 267 - Pass Details

Date: 13 July 2020
Orbit: 1102 x 1106 km, 123.0° (Epoch: 02 August)

Event Time Altitude Azimuth Distance (km) Brightness Sun altitude
Exits shadow 22:44:52 19° 120° (ESE) 2,361 4.6 -20.4°
Maximum altitude 22:49:49 84° 34° (NE) 1,113 3.3 -20.6°
Drops below altitude 10° 22:56:24 10° 307° (NW) 2,967 6.1 -20.8°
Sets 22:58:53 0° 307° (NW) 3,928 6.8 -20.8°
